TINTIN A (43216 NORAD) Tracking and Keplerian Element Data

This shows tracking and keplerian element data for the satellite.

Feedback or suggestion? Click here.




ElementValue
Catalog43216
NameTINTIN A
Epoch Orbit11696
Epoch Day93.59406427
Epoch Year2020
RAAN103.1969
Inclination97.4516
Eccentricity0.001486
Argument of Perigee109.0056
Mean Anonmoly251.2791
Mean Motion15.21130168
Decay Rate2.385E-05
L11 43216U 18020B 20093.59406427 .00002385 00000-0 11001-3 0 9992
L22 43216 97.4516 103.1969 0014860 109.0056 251.2791 15.21130168116967

Live tracking and technical data element details for TINTIN A (NORAD 43216). TINTIN A can be tracked NOW for your location showing map with azimuth and elevation plus other details from your city location.

Track the satellite on the map from your city or location and see movement details for azimuth, elevation, latitude, longitude, range, height, and movement on the map or in text.







IsCatalogInMostPopularTable: catalog: 43216, numindb: 489
Update: records affected: 1



GetName: 43216 TINTIN A

Hit Count: updated at: Thu, 09 Apr 2020 17:19:44 GMT